User: anonymous   Login
Location: Unspecified
(0.0000°N, 0.0000°E)
Time: 00:25:39
(UTC+02:00)
Language:

ARIANE 5 R/B - Orbit

View from above orbital plane
View from above orbital plane
View from above satellite
View from above satellite

Ground track
Ground track

The orbit data is extracted from the following two-line orbital elements,

1 29646U 06054D   16182.30774510 +.00004668 +00000-0 +86475-3 0  9994
2 29646 002.6750 122.9105 7121781 357.1595 000.1904 02.49320738082902
Epoch (UTC): 30 June 2016 07:23:09
Eccentricity: 0.7121781
inclination: 2.6750°
perigee height: 234 km
apogee height: 32956 km
right ascension of ascending node: 122.9105°
argument of perigee: 357.1595°
revolutions per day: 2.49320738
mean anomaly at epoch: 0.1904°
orbit number at epoch: 8290

The dashed part of the orbit path shows where the satellite is in the earth's shadow,  

DLR